Weather History for Laurinburg-Maxton, NC

Change the Weather History Date:

Friday, December 13, 2013

  Actual Average (KLBT) Record (KLBT)
Temperature  
Mean Temperature 36 °F 47 °F  
Max Temperature 52 °F 57 °F 79 °F (2007)
Min Temperature 21 °F 36 °F 25 °F (2013)
Degree Days  
Heating Degree Days 28 18  
Month to date heating degree days 220  
Since 1 July heating degree days 686  
Cooling Degree Days 0 0  
Month to date cooling degree days 0  
Year to date cooling degree days 1907  
Moisture  
Dew Point 26 °F    
Average Humidity 72    
Maximum Humidity 100    
Minimum Humidity 30    
Precipitation  
Precipitation 0.00 in 0.11 in 0.56 in (2002)
Month to date precipitation 1.36  
Year to date precipitation 41.99  
Sea Level Pressure  
Sea Level Pressure 30.36 in    
Wind  
Wind Speed 1 mph (SW)    
Max Wind Speed 10 mph    
Max Gust Speed -    
Visibility 10 miles    
Events      
T = Trace of Precipitation, MM = Missing Value Source: NWS Daily Summary

Daily Weather History Graph

Daily Weather History Graph

Search for Another Location

Airport:

Trip Planner

Search our weather history database for the weather conditions in past years. The results will help you decide how hot, cold, wet, or windy it might be!

Date:

Astronomy

Dec. 13, 2013 Rise Set
Actual Time 7:16 AM EST 5:07 PM EST
Civil Twilight 6:48 AM EST 5:35 PM EST
Nautical Twilight 6:16 AM EST 6:06 PM EST
Astronomical Twilight 5:46 AM EST 6:37 PM EST
Moon 2:43 PM EST (12/13) 3:43 AM EST (12/13)
Length of Visible Light 10h 46m
Length of Day
9h 50m
Waxing Gibbous, 88% of the Moon is Illuminated
Dec 13
Waxing Gibbous
Dec 17
Full
Dec 25
Last Quarter
Jan 1
New
Jan 7
First Quarter

Hourly Weather History & Observations

Time (EST) Temp. Windchill Dew Point Humidity Pressure Visibility Wind Dir Wind Speed Gust Speed Precip Events Conditions
12:52 AM 26.1 °F - 23.0 °F 88% 30.38 in 10.0 mi Calm Calm - N/A   Clear
1:52 AM 26.1 °F - 23.0 °F 88% 30.38 in 10.0 mi Calm Calm - N/A   Clear
2:52 AM 25.0 °F - 23.0 °F 92% 30.38 in 10.0 mi Calm Calm - N/A   Clear
3:52 AM 24.1 °F - 21.9 °F 91% 30.39 in 9.0 mi Calm Calm - N/A   Clear
4:52 AM 24.1 °F - 21.9 °F 91% 30.39 in 10.0 mi Calm Calm - N/A   Clear
5:52 AM 23.0 °F - 21.0 °F 92% 30.39 in 10.0 mi Calm Calm - N/A   Clear
6:52 AM 21.9 °F - 19.9 °F 92% 30.41 in 10.0 mi Calm Calm - N/A   Clear
7:52 AM 24.1 °F - 24.1 °F 100% 30.42 in 10.0 mi Calm Calm - N/A   Clear
8:52 AM 30.0 °F - 27.0 °F 88% 30.43 in 10.0 mi Calm Calm - N/A   Clear
9:52 AM 37.9 °F - 30.0 °F 73% 30.43 in 10.0 mi Calm Calm - N/A   Clear
10:52 AM 45.0 °F - 26.1 °F 48% 30.41 in 10.0 mi Calm Calm - N/A   Clear
11:52 AM 48.0 °F - 23.0 °F 37% 30.38 in 10.0 mi SSW 8.1 mph - N/A   Clear
12:52 PM 50.0 °F - 21.0 °F 32% 30.35 in 10.0 mi West 8.1 mph - N/A   Clear
1:52 PM 50.0 °F - 21.0 °F 32% 30.32 in 10.0 mi SW 9.2 mph - N/A   Clear
2:52 PM 52.0 °F - 21.0 °F 30% 30.31 in 10.0 mi SW 10.4 mph - N/A   Clear
3:52 PM 52.0 °F - 21.0 °F 30% 30.30 in 10.0 mi SW 5.8 mph - N/A   Clear
4:52 PM 48.9 °F - 28.9 °F 46% 30.30 in 10.0 mi Calm Calm - N/A   Clear
5:52 PM 42.1 °F - 32.0 °F 67% 30.30 in 10.0 mi Calm Calm - N/A   Clear
6:52 PM 39.0 °F - 32.0 °F 76% 30.31 in 10.0 mi Calm Calm - N/A   Clear
7:52 PM 35.1 °F 32.2 °F 30.0 °F 82% 30.31 in 10.0 mi ENE 3.5 mph - N/A   Clear
8:52 PM 37.0 °F - 32.0 °F 82% 30.32 in 10.0 mi Calm Calm - N/A   Clear
9:52 PM 36.0 °F - 32.0 °F 86% 30.33 in 10.0 mi Calm Calm - N/A   Clear
10:52 PM 36.0 °F - 33.1 °F 89% 30.32 in 9.0 mi Calm Calm - N/A   Clear
11:52 PM 37.0 °F - 35.1 °F 93% 30.31 in 8.0 mi Calm Calm - N/A   Clear